Jaipur / Sanganer, India

11:12 AM IST on March 25, 2017 (GMT +0530)
Jaipur / Sanganer

Weather History for 42348 - March, 2013

Change the Weather History Date:

Sunday, March 10, 2013

  Actual Average Record
Temperature  
Mean Temperature 80 °F -  
Max Temperature 91 °F - - ()
Min Temperature 68 °F - - ()
Cooling Degree Days 14    
Growing Degree Days 30 (Base 50)    
Moisture  
Dew Point 35 °F    
Average Humidity 19    
Maximum Humidity 31    
Minimum Humidity 6    
Precipitation  
Precipitation 0.00 in - - ()
Sea Level Pressure  
Sea Level Pressure 29.81 in    
Wind  
Wind Speed 3 mph ()    
Max Wind Speed 16 mph    
Max Gust Speed 21 mph    
Visibility 1.9 miles    
Events      
T = Trace of Precipitation, MM = Missing Value Source: Averaged Metar Reports

Daily Weather History Graph

Daily Weather History Graph

Search for Another Location

Airport or City:

Trip Planner

Search our weather history database for the weather conditions in past years. The results will help you decide how hot, cold, wet, or windy it might be!

Date:

Astronomy

Mar. 10, 2013 Rise Set
Actual Time 6:41 AM IST 6:32 PM IST
Civil Twilight 6:18 AM IST 6:55 PM IST
Nautical Twilight 5:51 AM IST 7:22 PM IST
Astronomical Twilight 5:24 AM IST 7:49 PM IST
Moon 5:19 AM IST (3/10) 5:14 PM IST (3/10)
Length of Visible Light 12h 37m
Length of Day
11h 51m
Waning Crescent, 3% of the Moon is Illuminated
Mar 10
Waning Crescent
Mar 12
New
Mar 19
First Quarter
Mar 27
Full
Apr 3
Last Quarter

Hourly Weather History & Observations

Time (IST) Temp. Dew Point Humidity Pressure Visibility Wind Dir Wind Speed Gust Speed Precip Events Conditions
12:00 AM 73.4 °F 35.6 °F 25% 29.83 in 1.6 mi Calm Calm - N/A   Haze
1:00 AM 71.6 °F 37.4 °F 29% 29.80 in 1.6 mi Variable 1.2 mph - N/A   Haze
2:00 AM 71.6 °F 33.8 °F 25% 29.80 in 1.6 mi Calm Calm - N/A   Haze
2:30 AM 71 °F 38 °F 20% 29.75 in 1 mi Calm Calm - -   Haze
3:00 AM 69.8 °F 37.4 °F 31% 29.80 in 1.6 mi Calm Calm - N/A   Haze
4:00 AM 68.0 °F 35.6 °F 30% 29.77 in 1.6 mi Calm Calm - N/A   Haze
5:30 AM 72 °F 34 °F 15% 29.74 in 1 mi Calm Calm - -   Haze
6:00 AM 71.6 °F 33.8 °F 25% 29.80 in 1.6 mi Calm Calm - N/A   Haze
7:00 AM 69.8 °F 33.8 °F 27% 29.80 in 1.6 mi WNW 3.5 mph - N/A   Haze
8:30 AM 73 °F 37 °F 16% 29.77 in 2 mi NW 4.6 mph - -   Haze
9:00 AM 77.0 °F 39.2 °F 26% 29.86 in 2.5 mi NW 6.9 mph - N/A   Haze
10:00 AM 80.6 °F 41.0 °F 24% 29.86 in 2.5 mi Variable 9.2 mph - N/A   Haze
11:00 AM 86.0 °F 39.2 °F 19% 29.86 in 2.5 mi NW 8.1 mph - N/A   Haze
11:30 AM 86 °F 35 °F 9% 29.78 in 1 mi NW 6.9 mph - -   Haze
12:00 PM 87.8 °F 35.6 °F 16% 29.86 in 2.5 mi WNW 10.4 mph - N/A   Haze
1:00 PM 89.6 °F 32.0 °F 13% 29.83 in 2.5 mi West 9.2 mph 20.7 mph N/A   Haze
2:00 PM 89.6 °F 33.8 °F 14% 29.80 in 2.5 mi West 12.7 mph - N/A   Haze
2:30 PM 89 °F 34 °F 7% 29.71 in 2 mi WNW 9.2 mph - -   Haze
3:00 PM 89.6 °F 32.0 °F 13% 29.80 in 2.5 mi West 16.1 mph - N/A   Haze
4:00 PM 87.8 °F 30.2 °F 13% 29.77 in 2.5 mi NW 8.1 mph - N/A   Haze
5:00 PM 89.6 °F 30.2 °F 12% 29.80 in 2.5 mi WNW 10.4 mph - N/A   Haze
5:30 PM 88 °F 30 °F 6% 29.71 in 2 mi NW 3.5 mph - -  
6:00 PM 86.0 °F 28.4 °F 12% 29.80 in 2.5 mi WNW 9.2 mph - N/A   Haze
7:00 PM 82.4 °F 30.2 °F 15% 29.80 in 2.2 mi WNW 4.6 mph - N/A   Haze
8:00 PM 82.4 °F 26.6 °F 13% 29.83 in 2.2 mi NW 5.8 mph - N/A   Haze
8:30 PM 74 °F 32 °F 12% 29.78 in 1 mi NW 1.2 mph - -   Haze
9:00 PM 77.0 °F 33.8 °F 21% 29.86 in 2.2 mi Variable 1.2 mph - N/A   Haze
10:00 PM 73.4 °F 39.2 °F 29% 29.89 in 2.2 mi Calm Calm - N/A   Haze
11:00 PM 71.6 °F 39.2 °F 31% 29.89 in 2.2 mi Variable 2.3 mph - N/A   Haze
11:30 PM 72 °F 40 °F 21% 29.83 in 1 mi Calm Calm - -   Haze